191  
ASUS41 KRLX 162010  
RWRRLX  
REGIONAL WEATHER ROUNDUP  
NATIONAL WEATHER SERVICE CHARLESTON WV  
400 PM EDT TUE JUL 16 2019  
 
NOTE: "FAIR" INDICATES FEW OR NO CLOUDS BELOW 12,000 FEET WITH NO  
SIGNIFICANT WEATHER AND/OR S TO VISIBILITY
.  
 
WVZ003-162100-  
NORTHERN PANHANDLE OF WEST VIRGINIA  
 
CITY SKY/WX TMP DP RH WIND PRES REMARKS
 
WHEELING FAIR 82 71 69 S8 30.07F  

 
 
WVZ009-162100-  
NORTHWEST WEST VIRGINIA  
 
CITY SKY/WX TMP DP RH WIND PRES REMARKS
 
PARKERSBURG FAIR 86 72 62 SE8 30.09F  

 
 
WVZ006-162100-  
WESTERN WEST VIRGINIA  
 
CITY SKY/WX TMP DP RH WIND PRES REMARKS
 
HUNTINGTON FAIR 91 71 51 S10G18 30.04F HX 97  

 
 
WVZ015-162100-  
WEST CENTRAL WEST VIRGINIA  
 
CITY SKY/WX TMP DP RH WIND PRES REMARKS
 
CHARLESTON FAIR 92 65 40 SW9 30.06F  

 
 
WVZ022-031-162100-  
NORTH CENTRAL WEST VIRGINIA  
 
CITY SKY/WX TMP DP RH WIND PRES REMARKS
 
MORGANTOWN FAIR 84 69 60 VRB3 30.11F  
CLARKSBURG FAIR 85 70 60 SW7 30.10F  
BUCKHANNON FAIR 84 72 65 W8 30.13F  

 
 
WVZ025-035-042-045-162100-  
SOUTHERN WEST VIRGINIA  
 
CITY SKY/WX TMP DP RH WIND PRES REMARKS
 
BECKLEY FAIR 82 64 54 SW5 30.19F  
LOGAN FAIR 88 66 48 VRB6G15 30.11F  
PINEVILLE PTSUNNY 89 68 49 MISG 30.18F  
BLUEFIELD FAIR 80 64 58 SW5 30.22F  
LEWISBURG FAIR 81 68 63 W6 30.19F  

 
 
WVZ047-162100-  
NORTHERN MOUNTAINS OF WEST VIRGINIA  
 
CITY SKY/WX TMP DP RH WIND PRES REMARKS
 
ELKINS FAIR 84 70 62 N7 30.15F  

 
 
WVZ052-162100-  
EASTERN PANHANDLE OF WEST VIRGINIA  
 
CITY SKY/WX TMP DP RH WIND PRES REMARKS
 
MARTINSBURG LGT RAIN 86 74 67 CALM 30.04F  
PETERSBURG FAIR 79 71 76 SE5 30.09F  

 
 
SOUTHEAST OHIO/NORTHEAST KENTUCKY  
 
CITY SKY/WX TMP DP RH WIND PRES REMARKS
 
ATHENS FAIR 86 70 58 S9 30.04F  
ASHLAND FAIR 92 73 53 S12G17 30.03F HX 100  

 
 
 
CLICK HERE TO GO TO PREVIOUS BULLETINS.

The Nexlab WV Page
The Nexlab OH Page
The Nexlab KY Page
The Nexlab VA Page Main Text Page